Location: College Park
(38.9810°N, 76.9370°W)
Time: 20:04:34
(UTC-05:00)

Tiangong 1 - Pass Details

Date: 13 November 2017
Orbit: 285 x 308 km, 42.8° (Epoch: 20 November)

Event Time Altitude Azimuth Distance (km) Brightness Sun altitude
Exits shadow 04:57:15 21° 131° (SE) 728 3.1 -21.7°
Drops below altitude 10° 04:58:16 10° 124° (SE) 1,136 4.3 -21.5°
Sets 05:00:13 0° 120° (ESE) 1,957 5.8 -21.2°
